Location: Ferchesar
(52.6477°N, 12.4298°E)
Time: 07:52:26
(UTC+01:00)

Vanguard 1 Rocket - All Passes

Search period start: 02 December 2021 00:00
Search period end: 12 December 2021 00:00
Orbit: 650 x 4226 km, 34.3° (Epoch: 01 December)

Date Brightness Start Highest point End Pass type
(mag) Time Alt. Az. Time Alt. Az. Time Alt. Az.
02 Dec - 02:22:18 10° SSW 02:31:38 27° SE 02:46:12 10° E visible
02 Dec - 04:44:09 10° SW 04:57:28 42° S 05:18:46 10° ESE visible
02 Dec - 07:09:10 10° WSW 07:25:41 39° SSW 07:47:58 10° SE visible
02 Dec - 09:38:14 10° W 09:53:40 23° SW 10:10:41 10° S daylight
03 Dec - 01:14:16 10° S 01:20:44 17° SE 01:29:37 10° E visible
03 Dec - 03:33:51 10° SW 03:45:02 37° SSE 04:03:37 10° ESE visible
03 Dec - 05:57:32 10° WSW 06:12:19 42° S 06:34:29 10° SE visible
03 Dec - 08:24:21 10° W 08:40:38 30° SSW 09:00:31 10° SSE daylight
03 Dec - 11:02:12 10° WSW 11:07:18 11° SW 11:12:30 10° SW daylight
04 Dec - 02:24:15 10° SSW 02:33:22 29° SSE 02:48:05 10° E visible
04 Dec - 04:46:34 10° WSW 04:59:21 41° S 05:20:07 10° ESE visible
04 Dec - 07:11:47 10° WSW 07:27:22 35° SSW 07:48:38 10° SSE visible
04 Dec - 09:42:01 10° WSW 09:54:57 18° SW 10:09:20 10° S daylight
05 Dec - 01:15:40 10° S 01:22:23 20° SE 01:32:06 10° E visible
05 Dec - 03:36:10 10° SW 03:46:57 37° SSE 04:05:08 10° ESE visible
05 Dec - 06:00:07 10° WSW 06:14:10 39° S 06:35:27 10° SE visible
05 Dec - 08:27:25 10° W 08:42:09 25° SW 09:00:15 10° S daylight
06 Dec - 02:26:23 10° SSW 02:35:13 31° SSE 02:49:51 10° ESE visible
06 Dec - 04:49:05 10° WSW 05:01:18 40° S 05:21:18 10° ESE visible
06 Dec - 07:14:35 10° WSW 07:29:05 31° SSW 07:48:55 10° SSE visible
06 Dec - 09:47:07 10° WSW 09:56:18 14° SW 10:06:20 10° SSW daylight
07 Dec - 01:17:26 10° S 01:24:10 22° SE 01:34:20 10° ESE visible
07 Dec - 03:38:37 10° SW 03:48:56 37° S 04:06:33 10° ESE visible
07 Dec - 06:02:48 10° WSW 06:16:03 35° SSW 06:36:09 10° SE visible
07 Dec - 08:30:56 10° WSW 08:43:41 21° SW 08:59:14 10° S daylight
08 Dec - 00:10:27 10° SSE 00:13:42 12° SE 00:17:37 10° ESE visible
08 Dec - 02:28:42 10° SW 02:37:12 31° SSE 02:51:32 10° ESE visible
08 Dec - 04:51:42 10° WSW 05:03:19 37° S 05:22:20 10° SE visible
08 Dec - 07:17:38 10° WSW 07:30:50 27° SSW 07:48:47 10° SSE visible
09 Dec - 01:19:27 10° SSW 01:26:06 23° SSE 01:36:24 10° ESE visible
09 Dec - 03:41:10 10° SW 03:51:02 36° S 04:07:52 10° ESE visible
09 Dec - 06:05:39 10° WSW 06:18:00 31° SSW 06:36:33 10° SSE visible
09 Dec - 08:35:21 10° WSW 08:45:17 16° SW 08:57:02 10° SSW daylight
10 Dec - 00:11:31 10° SSE 00:15:33 14° SE 00:20:44 10° ESE visible
10 Dec - 02:31:08 10° SW 02:39:18 32° SSE 02:53:08 10° ESE visible
10 Dec - 04:54:26 10° WSW 05:05:23 34° S 05:23:09 10° SE visible
10 Dec - 07:21:04 10° WSW 07:32:38 22° SSW 07:48:00 10° S visible
11 Dec - 01:21:41 10° SSW 01:28:09 24° SSE 01:38:20 10° ESE visible
11 Dec - 03:43:49 10° WSW 03:53:11 34° S 04:09:02 10° SE visible
11 Dec - 06:08:41 10° WSW 06:19:59 27° SSW 06:36:33 10° SSE visible
11 Dec - 08:42:35 10° SW 08:46:57 11° SW 08:51:40 10° SSW daylight
